Weather History for Highgate, VT

Change the Weather History Date:

Tuesday, July 23, 2013

  Actual Average (KPBG) Record (KPBG)
Temperature  
Mean Temperature 76 °F 70 °F  
Max Temperature 82 °F 80 °F 95 °F (1952)
Min Temperature 69 °F 59 °F 48 °F (1962)
Degree Days  
Heating Degree Days 0 0  
Month to date heating degree days 12  
Since 1 June heating degree days 97  
Since 1 July heating degree days 12  
Cooling Degree Days 10 5  
Month to date cooling degree days 109  
Year to date cooling degree days 179  
Since 1 June cooling degree days 171  
Growing Degree Days 26 (Base 50)    
Moisture  
Dew Point 66 °F    
Average Humidity 77    
Maximum Humidity 90    
Minimum Humidity 53    
Precipitation  
Precipitation 0.00 in - 1.90 in (1948)
Month to date precipitation  
Year to date precipitation  
Sea Level Pressure  
Sea Level Pressure 29.65 in    
Wind  
Wind Speed 1 mph (SSE)    
Max Wind Speed 5 mph    
Max Gust Speed -    
Visibility 10 miles    
Events Rain    
T = Trace of Precipitation, MM = Missing Value Source: NWS Daily Summary

Daily Weather History Graph

Daily Weather History Graph

Search for Another Location

Airport:

Trip Planner

Search our weather history database for the weather conditions in past years. The results will help you decide how hot, cold, wet, or windy it might be!

Date:

Astronomy

Jul. 23, 2013 Rise Set
Actual Time 5:28 AM EDT 8:28 PM EDT
Civil Twilight 4:53 AM EDT 9:03 PM EDT
Nautical Twilight 4:08 AM EDT 9:48 PM EDT
Astronomical Twilight 3:15 AM EDT 10:41 PM EDT
Moon 8:47 PM EDT (7/23) 6:39 AM EDT (7/23)
Length of Visible Light 16h 10m
Length of Day
15h 00m
Full, 99% of the Moon is Illuminated
Jul 23
Full
Jul 29
Last Quarter
Aug 6
New
Aug 14
First Quarter
Aug 20
Full

Hourly Weather History & Observations

Time (EDT) Temp. Heat Index Dew Point Humidity Pressure Visibility Wind Dir Wind Speed Gust Speed Precip Events Conditions
12:15 AM 69.4 °F - 62.8 °F 79% 29.81 in 10.0 mi Calm Calm - N/A   Clear
12:35 AM 69.4 °F - 63.3 °F 81% 29.80 in 10.0 mi Calm Calm - N/A   Clear
12:55 AM 69.4 °F - 62.8 °F 79% 29.80 in 10.0 mi Calm Calm - N/A   Clear
1:15 AM 69.4 °F - 63.0 °F 80% 29.80 in 10.0 mi Calm Calm - N/A   Clear
1:35 AM 70.0 °F - 64.0 °F 81% 29.80 in 10.0 mi Calm Calm - N/A   Clear
1:55 AM 71.8 °F - 65.7 °F 81% 29.79 in 10.0 mi Calm Calm - N/A   Clear
2:15 AM 72.0 °F - 66.2 °F 82% 29.79 in 10.0 mi South 4.6 mph - N/A   Clear
2:35 AM 71.1 °F - 65.8 °F 84% 29.78 in 10.0 mi Calm Calm - N/A   Clear
2:55 AM 70.0 °F - 64.8 °F 83% 29.77 in 10.0 mi Calm Calm - N/A   Clear
3:15 AM 69.4 °F - 65.1 °F 86% 29.77 in 10.0 mi Calm Calm - N/A   Scattered Clouds
3:35 AM 69.4 °F - 65.5 °F 87% 29.76 in 10.0 mi Calm Calm - N/A   Mostly Cloudy
3:55 AM 69.4 °F - 65.5 °F 87% 29.75 in 10.0 mi SE 4.6 mph - N/A   Overcast
4:15 AM 69.4 °F - 65.3 °F 87% 29.74 in 10.0 mi SE 4.6 mph - N/A   Scattered Clouds
4:35 AM 69.4 °F - 65.5 °F 87% 29.73 in 10.0 mi Calm Calm - N/A   Scattered Clouds
4:55 AM 69.4 °F - 65.5 °F 87% 29.73 in 10.0 mi SSE 4.6 mph - N/A   Mostly Cloudy
5:15 AM 69.4 °F - 65.7 °F 88% 29.72 in 10.0 mi Calm Calm - N/A Rain Light Rain
5:35 AM 69.4 °F - 65.7 °F 88% 29.73 in 7.0 mi Calm Calm - N/A   Light Drizzle
5:55 AM 69.4 °F - 66.2 °F 89% 29.73 in 7.0 mi Calm Calm - N/A Rain Light Rain
6:15 AM 69.4 °F - 66.2 °F 89% 29.73 in 4.0 mi Calm Calm - N/A   Drizzle
6:35 AM 69.4 °F - 66.4 °F 90% 29.72 in 5.0 mi East 3.5 mph - N/A Rain Light Rain
6:55 AM 69.4 °F - 66.4 °F 90% 29.72 in 7.0 mi ESE 3.5 mph - N/A   Light Drizzle
7:15 AM 69.4 °F - 66.2 °F 89% 29.71 in 10.0 mi ESE 3.5 mph - N/A   Light Drizzle
7:35 AM 69.6 °F - 66.0 °F 88% 29.71 in 10.0 mi Calm Calm - N/A   Mostly Cloudy
7:55 AM 70.7 °F - 66.6 °F 87% 29.71 in 10.0 mi Calm Calm - N/A   Scattered Clouds
8:15 AM 70.7 °F - 66.7 °F 87% 29.71 in 10.0 mi Calm Calm - N/A Rain Light Rain
8:35 AM 70.7 °F - 66.6 °F 87% 29.70 in 10.0 mi Calm Calm - N/A Rain Light Rain
8:55 AM 70.3 °F - 66.0 °F 86% 29.70 in 10.0 mi South 3.5 mph - N/A Rain Rain
9:15 AM 70.3 °F - 65.7 °F 85% 29.69 in 7.0 mi Calm Calm - N/A Rain Light Rain
9:35 AM 70.3 °F - 65.8 °F 86% 29.69 in 10.0 mi Calm Calm - N/A Rain Light Rain
9:55 AM 69.4 °F - 64.8 °F 85% 29.68 in 10.0 mi Calm Calm - N/A Rain Light Rain
10:15 AM 69.4 °F - 64.8 °F 85% 29.67 in 10.0 mi Calm Calm - N/A Rain Light Rain
10:35 AM 69.4 °F - 64.8 °F 85% 29.67 in 10.0 mi Calm Calm - N/A Rain Light Rain
10:55 AM 69.6 °F - 64.9 °F 85% 29.66 in 10.0 mi Calm Calm - N/A Rain Light Rain
11:15 AM 69.8 °F - 64.8 °F 84% 29.66 in 10.0 mi SE 3.5 mph - N/A Rain Light Rain
11:35 AM 70.5 °F - 65.7 °F 85% 29.65 in 10.0 mi ESE 3.5 mph - N/A Rain Light Rain
11:55 AM 71.1 °F - 65.1 °F 81% 29.64 in 10.0 mi East 3.5 mph - N/A   Clear
12:15 PM 74.5 °F - 66.9 °F 77% 29.65 in 10.0 mi Calm Calm - N/A   Scattered Clouds
12:35 PM 74.5 °F - 65.5 °F 73% 29.64 in 10.0 mi East 3.5 mph - N/A   Mostly Cloudy
12:55 PM 74.5 °F - 63.5 °F 68% 29.64 in 10.0 mi Calm Calm - N/A   Mostly Cloudy
1:15 PM 77.0 °F - 63.9 °F 64% 29.63 in 10.0 mi SSE 4.6 mph - N/A   Scattered Clouds
1:35 PM 77.0 °F - 64.4 °F 65% 29.62 in 10.0 mi East 3.5 mph - N/A   Clear
1:55 PM 77.0 °F - 63.9 °F 64% 29.62 in 10.0 mi Calm Calm - N/A   Mostly Cloudy
2:15 PM 79.7 °F - 66.0 °F 63% 29.61 in 10.0 mi WSW 3.5 mph - N/A   Scattered Clouds
2:35 PM 79.7 °F - 63.1 °F 57% 29.60 in 10.0 mi SSW 4.6 mph - N/A   Clear
2:55 PM 80.6 °F 81.8 °F 62.8 °F 54% 29.58 in 10.0 mi SE 3.5 mph - N/A   Clear
3:15 PM 81.0 °F 82.1 °F 62.4 °F 53% 29.58 in 10.0 mi Calm Calm - N/A   Clear
3:35 PM 81.9 °F 83.1 °F 63.0 °F 53% 29.58 in 10.0 mi Calm Calm - N/A   Clear
3:55 PM 81.7 °F 83.3 °F 64.8 °F 56% 29.58 in 10.0 mi SSE 4.6 mph - N/A   Clear
4:35 PM 82.0 °F 83.8 °F 64.8 °F 56% 29.56 in 10.0 mi SW 3.5 mph - N/A   Clear
4:55 PM 82.0 °F 83.9 °F 65.3 °F 57% 29.56 in 10.0 mi West 3.5 mph - N/A   Clear
5:15 PM 82.0 °F 83.8 °F 64.8 °F 56% 29.56 in 10.0 mi Calm Calm - N/A   Clear
5:35 PM 82.0 °F 83.9 °F 65.5 °F 57% 29.55 in 10.0 mi Calm Calm - N/A   Clear
5:55 PM 82.0 °F 83.9 °F 65.3 °F 57% 29.54 in 10.0 mi South 3.5 mph - N/A   Clear
6:15 PM 80.8 °F 82.9 °F 66.2 °F 61% 29.54 in 10.0 mi SW 3.5 mph - N/A   Clear
6:35 PM 79.7 °F - 65.3 °F 61% 29.54 in 10.0 mi Calm Calm - N/A   Clear
6:55 PM 79.7 °F - 65.5 °F 62% 29.55 in 10.0 mi SSW 4.6 mph - N/A   Clear
7:15 PM 79.7 °F - 66.4 °F 64% 29.54 in 10.0 mi Calm Calm - N/A   Clear
7:35 PM 78.4 °F - 66.6 °F 67% 29.53 in 10.0 mi Calm Calm - N/A   Clear
7:55 PM 77.0 °F - 67.3 °F 72% 29.53 in 10.0 mi Calm Calm - N/A   Clear
8:15 PM 74.5 °F - 66.9 °F 77% 29.53 in 10.0 mi Calm Calm - N/A   Clear
8:35 PM 74.5 °F - 67.1 °F 78% 29.54 in 10.0 mi Calm Calm - N/A   Clear
8:55 PM 74.5 °F - 67.5 °F 79% 29.55 in 10.0 mi Calm Calm - N/A   Scattered Clouds
9:15 PM 74.5 °F - 67.5 °F 79% 29.55 in 10.0 mi South 4.6 mph - N/A   Scattered Clouds
9:35 PM 74.5 °F - 68.2 °F 81% 29.55 in 10.0 mi South 3.5 mph - N/A   Scattered Clouds
9:55 PM 74.5 °F - 68.4 °F 81% 29.55 in 7.0 mi South 4.6 mph - N/A   Clear
10:15 PM 72.5 °F - 66.0 °F 80% 29.55 in 7.0 mi Calm Calm - N/A   Clear
10:35 PM 72.0 °F - 65.7 °F 80% 29.55 in 10.0 mi South 4.6 mph - N/A   Scattered Clouds
10:55 PM 72.0 °F - 65.8 °F 81% 29.55 in 10.0 mi South 3.5 mph - N/A   Scattered Clouds
11:15 PM 73.4 °F - 67.3 °F 81% 29.55 in 10.0 mi South 4.6 mph - N/A   Overcast
11:35 PM 74.5 °F - 68.2 °F 81% 29.54 in 10.0 mi South 4.6 mph - N/A   Mostly Cloudy
11:55 PM 73.2 °F - 67.1 °F 81% 29.54 in 10.0 mi South 3.5 mph - N/A   Scattered Clouds